Weather in Bulungu

Russia / The Kabardino-Balkar Republic     43°14′17″N   43°07′51″E
temp.,
°C
wind,
m/s
gust,
m/s
humid.,
%
clouds,
%
prec.,
mm/h
press.,
hPa
HPBL,
m
2 march, tue
tue200:00−14sw3369100 0.0 103024
03:00−14sw4463100 0.0 103024
06:00−15sw33513 0.0 103121
09:00−10sw11591 0.0 1030148
12:00−7ne11721 0.0 1027447
15:00−6nne128310 0.1 1026372
18:00−12sw557120 0.0 102649
21:00−12sw666511 0.0 102757
3 march, wed
wed300:00−12sw77600 0.0 102673
03:00−12sw77550 0.0 102568
06:00−12sw765969 0.0 102476
09:00−7sw456565 0.0 1022154
12:00−6sw246794 0.0 1021469
15:00−6wsw256293 0.1 1020950
18:00−13sw338263 0.4 102325
21:00−14sw556934 0.6 102636
4 march, thu
thu400:00−15sw55655 0.0 102843
03:00−15sw55613 0.0 102934
06:00−13sw33460 0.0 102921
09:00−7wnw11570 0.0 102861
12:00−6ne21800 0.0 1026234
15:00−5ne218912 0.0 1024245
18:00−9sw447260 0.0 102426
21:00−10sw554231 0.0 102528
5 march, fri
fri500:00−10sw65400 0.0 102434
03:00−9sw44310 0.0 102323
06:00−9sw44280 0.0 102222
09:00−4sw11560 0.0 102125
12:00−2ne21690 0.0 1019222
15:00−2nne11862 0.0 1019253
18:00−7sw55583 0.0 102128
21:00−7sw65392 0.0 102232
6 march, sat
sat600:00−6sw65360 0.0 102231
03:00−6sw76371 0.0 102141
06:00−6sw663418 0.0 102041
09:00−2sw455629 0.0 101970
12:000sw23869 0.0 1016190
15:000sw347455 0.0 1014162
18:00−6sw7752100 0.0 101586
21:00−6sw7864100 0.0 1016115